Location: Nag� el Ma?a??a
(24.0667°N, 32.8833°E)
Time: 16:28:52
(UTC+00:00)

Meteor 1-5 Rocket - Pass Details

Date: 25 September 2021
Orbit: 788 x 916 km, 81.2° (Epoch: 16 October)

Event Time Altitude Azimuth Distance (km) Brightness Sun altitude
Rises 01:30:33 0° 354° (N) 3,280 7.4 -29.7°
Reaches altitude 10° 01:32:55 10° 355° (N) 2,349 6.6 -29.2°
Enters shadow 01:37:22 64° 7° (N) 875 4.2 -28.2°
Exits shadow 01:41:13 27° 170° (S) 1,497 5.4 -27.3°
Drops below altitude 10° 01:43:33 10° 172° (S) 2,374 6.5 -26.8°
Sets 01:45:57 0° 173° (S) 3,317 7.3 -26.3°
